DECAYED

FENGYUN 1C DEB, 31166 (Decayed)

Orbit data source: Space-Track

FENGYUN 1C DEB, 31166 was space debris in SSO originally from a launch on Mon, 10 May 1999 UTC launched from the Taiyaun Space Center, China (TSC). Fengyun 1C debris stems from the Chinese weather satellite Fengyun-1C, which was intentionally destroyed by a Chinese anti-satellite missile in 2007. This event dramatically increased the amount of space debris, with thousands of trackable fragments posing hazards to satellites and human spaceflight. The Fengyun 1C debris cloud has become a focal point in discussions about space sustainability and the need for international regulations to prevent the creation of new debris.

Not visible in the next 10 days
Identifier
31166, 1999-025BHU
Orbit
Decayed
Country
Flag of CNCN / PRC
Related business
Manufacturer
Unknown
Mission
Decayed spacecraft
Bus & Motor
Unknown
Mass
Unknown
Launch date (UTC)
1999-05-10 (27 years ago)
Launch vehicle
Unknown
Launch site
Taiyaun Space Center, China (TSC)
Object type
Payload
Rocket body
Debris
Shape & HBR
Unknown shape, 0.1 m
Radar Cross Section
Small (<0.1 m²)

Expand to show TLE details & history
Last TLE update: 1 year ago

TLE from 1 year ago
0 FENGYUN 1C DEB
1 31166U 99025BHU 25076.95701234  .06994613  10923+0  31028-1 0  9990
2 31166  98.7448 264.4806 0018918 317.0948  42.8845 15.91778342939490
Epoch: 2025-03-17T22:58Z
TLE epoch observation values (Epoch: 2025-03-17T22:58:05.866Z)
Latitude
0.00002°
Longitude
104.18976°
Altitude
291.206 km
Speed
7.738 km/s
True Right ascension
17h 37m 55s
True Declination
0° 00' 00"
Sunlit
Object was in daylight at epoch
Visualization orbit readout
Latitude
Unknown
Longitude
Unknown
Altitude
Unknown
Speed
Unknown
Apparent Right ascension
Unknown
Apparent Declination
Unknown
Sunlit
N/A
Visualization observer readout
Local Sidereal Time
22:29:25
Azimuth
Unknown
Elevation
Unknown
Doppler factor
Unknown
Orbital elements
Apogee altitude
306.864 km
Perigee altitude
281.619 km
Semi-major axis
6,672.378 km
Eccentricity
0.00189
Inclination
98.7448°
RAAN
264.4806°
Arg. of periapsis
317.0948°
True anomaly
43.03228°
Mean anomaly
42.8845°
Eccentric anomaly
42.95837°
Mean motion
3.98219 °/min
Orbital period
90.4 mins
BSTAR
0.031028
Loading maneuver chart data...
Computing Atmospheric mass density...

Documentation

Showing up to 5 results
|